sat.trackr.live / text

‹ back to catalog

VIASAT-3 F1

NORAD 56370 · 2023-060A

PAYLOAD ACTIVE UNKNOWN

§ Identity

Operator
Country
US
Launch date
2023-05-01
Launch site
AFETR
Launch vehicle
Mass (kg)
RCS (m²)

Purposes: comms

External: N2YO · Heavens-Above · Gunter

§ Orbital elements

Epoch: 2026-05-25T03:26:38.623776Z

Period
1,436.11 min
Inclination
0.0137°
Eccentricity
0.0000845
Mean motion
1.00270815 rev/d
Perigee alt
35,783.3 km
Apogee alt
35,790.4 km
Semi-major
42,165.0 km
B*
0.0000e+0
RAAN
321.8091°
Arg perigee
118.5113°
Mean anomaly
125.1610°
Rev number
1,120

§ Raw data

VIASAT-3 F11 56370U 23060A   26145.14350259 -.00000188  00000+0  00000+0 0  99952 56370   0.0137 321.8091 0000845 118.5113 125.1610  1.00270815 11209

JSON: /api/v1/satellites/56370 · /tle

For live sub-satellite position, see the globe view (requires WebGL).

§ Visibility from observer

Set your observer location to see the next 7 days of passes ≥ 10°. The values pass through the URL so the page stays shareable.

No JS? Fill the form by hand. The geolocation button needs JavaScript.